Voltar ao catálogo

NUSAT-53

JANE GOODALL

AtivoCiênciaSSO
NORAD 68432·PAYLOAD·🇦🇷 Argentina

Lançado Mar 30, 2026 de Vandenberg Space Force Base

Loading…

Próximas Passagens (próximas 24 horas)

TLE

AtualizadoSource: Space-Track

Época: Sep 14, 2026, 03:12 UTC

1 68432U 26067S   26257.13393615  .00004692  00000-0  22567-3 0  9993
2 68432  97.4659 214.4990 0004575  77.6904 282.4842 15.19274225 25441

Acompanhe NUSAT-53 em tempo real com AllMySat

Download on the App Store